Regional Weather Roundup
Issued by NWS

Home | Current Version | Previous Version | Graphics & Text | Print | Product List | Glossary On
Versions: 1 2 3 4 5 6 7 8 9 10 11 12 13 14 15 16 17 18 19 20 21 22 23 24 25 26 27 28 29 30 31 32 33 34 35 36 37 38 39 40 41 42 43 44 45 46 47 48 49 50
000
ASUS45 KBOU 212107
RWRCO

WEATHER ROUNDUP FOR COLORADO
NATIONAL WEATHER SERVICE DENVER/BOULDER CO
200 PM MST SAT JAN 21 2017

NOTE: "FAIR" INDICATES FEW OR NO CLOUDS BELOW 12000 FEET WITH NO
SIGNIFICANT WEATHER AND/OR OBSTRUCTIONS TO VISIBILITY.

COZ001>005-013-030-031-212200-
...NORTHWEST COLORADO...

CITY           SKY/WX    TMP DP  RH WIND       PRES   REMARKS
CRAIG          FLURRIES  29  20  69 W7        29.43R WCI  22
HAYDEN         CLOUDY    28  19  69 SW7       29.40R WCI  21
MEEKER         LGT SNOW  30  28  92 CALM      29.42R FOG
MOUNT WERNER   NOT AVBL
STEAMBOAT SPGS CLOUDY    29  19  65 CALM      29.39R
WALDEN           N/A     19  12  73 E9        29.40S WCI   9
$$

COZ006>008-011-212200-
...WEST CENTRAL VALLEYS...

CITY           SKY/WX    TMP DP  RH WIND       PRES   REMARKS
GRAND JUNCTION MIX PCPN  35  34  96 NE5       29.45R WCI  31
MONTROSE       LGT SNOW  31  30  96 SE6       29.46R FOG     WCI  25
EAGLE          MOSUNNY   30  18  59 CALM      29.42S
RIFLE          CLOUDY    34  31  88 W8        29.43R WCI  27
DELTA          LGT RAIN  39  32  76 S6        29.45R
NUCLA          CLOUDY    36  30  80 W14       29.49R
$$

COZ017>023-064>068-212200-
...SOUTHWEST COLORADO...

CITY           SKY/WX    TMP DP  RH WIND       PRES   REMARKS
DURANGO        LGT SNOW  30  25  81 W21       29.45R WCI  17
CORTEZ         FLURRIES  32  31  96 S7        29.50R WCI  26
PAGOSA SPRINGS LGT SNOW  28  27  93 SW12G20   29.42R WCI  18
TELLURIDE      NOT AVBL
WOLF CREEK PAS CLOUDY    12  12 100 S21G35    29.41R WCI  -6
$$

COZ009-010-012-014-032>034-037-058>063-212200-
...CENTRAL COLORADO...

CITY           SKY/WX    TMP DP  RH WIND       PRES   REMARKS
ASPEN          PTSUNNY   30  18  60 N7        29.36R WCI  23
BUENA VISTA    CLOUDY    30  20  66 CALM      29.36R
COPPER MTN     NOT AVBL
BERTHOUD PASS  NOT AVBL
COTTONWOOD PAS CLOUDY    28  21  74 CALM      29.36S
GUNNISON       PTSUNNY   21  13  71 SW6       29.42R WCI  13
KREMMLING      CLOUDY    27  16  63 CALM      29.43R
LEADVILLE      LGT SNOW  25  12  58 CALM      29.34R
MONARCH PASS   CLOUDY    18  14  86 CALM      29.46R
SALIDA         CLOUDY    36  22  57 NW8       29.43R
SUNLIGHT       CLOUDY    21  19  93 MISG      29.42R
WILKERSON PASS FAIR      23  14  68 CALM      29.39R
$$

COZ069>075-212200-
...SAN LUIS VALLEY/SANGRE DE CRISTO MOUNTAINS...

CITY           SKY/WX    TMP DP  RH WIND       PRES   REMARKS
ALAMOSA        FAIR      29  22  75 S6        29.36S WCI  23
LA VETA PASS   LGT SNOW  27  19  74 NE23G38   29.33R WCI  12
SAGUACHE       LGT SNOW  30  23  74 CALM      29.38R
$$

COZ035-036-038>040-212200-
...NORTHERN COLORADO FRONT RANGE...

CITY           SKY/WX    TMP DP  RH WIND       PRES   REMARKS
DENVER INTL AP PTSUNNY   40  26  57 NE8       29.36R
DMNS CITY PARK   N/A     39  24  53 NE7       29.36R
AURORA         NOT AVBL
FRONT RANGE AP NOT AVBL
ERIE MUNI ARPT FAIR      40  27  59 N7        29.37R
BOULDER MUN AP PTSUNNY   41  23  48 N5        29.36R
CENTENNIAL     PTSUNNY   38  22  52 N8        29.35R
BROOMFIELD     PTSUNNY   39  25  56 N5        29.36S
FORT COLLINS   FAIR      41  27  56 NE7       29.38R
LONGMONT       FAIR      44  25  47 N7        29.38S
$$

COZ041-046-047-076>085-087-088-212200-
...PIKES PEAK/PALMER DIVIDE AND SOUTHERN FOOTHILLS...

CITY           SKY/WX    TMP DP  RH WIND       PRES   REMARKS
COLO. SPRINGS  PTSUNNY   38  23  55 E8        29.35R
A. F. ACADEMY  FAIR      40  16  37 S3        29.33R
SCHRIEVER AFB  NOT AVBL
ELLICOTT       FAIR     N/A N/A N/A E10       29.33R
FALCON         PTSUNNY   38  18  45 SE8       29.35R
FORT CARSON    NOT AVBL
LIMON          FAIR      39  27  62 SE12      29.36R
MONUMENT HILL  PTSUNNY   34  19  55 N7        29.35R WCI  28
TRINIDAD       CLOUDY    35  26  69 E3        29.32R
$$

COZ042>045-048>051-090-091-212200-
...NORTHEAST COLORADO...

CITY           SKY/WX    TMP DP  RH WIND       PRES   REMARKS
GREELEY ARPT   FAIR      41  28  60 SE7         N/A
AKRON          FAIR      43  24  47 SE16      29.38R
BURLINGTON     FAIR      44  35  70 E12       29.37S
WRAY           FAIR      46  32  57 E6        29.40
STERLING       FAIR      45  30  57 E6        29.38R
HOLYOKE        FAIR      46  28  49 E3        29.41S
FORT MORGAN    FAIR      40  26  56 SE7       29.39R
$$

COZ086-089-092>099-212200-
...SOUTHEAST COLORADO...

CITY           SKY/WX    TMP DP  RH WIND       PRES   REMARKS
PUEBLO         FAIR      39  31  72 E8        29.34R
LA JUNTA       PTSUNNY   33  30  88 W7        29.35R WCI  27
LAMAR          FAIR      44  31  60 S7        29.31F
SPRINGFIELD      N/A     39  31  72 N16       29.29R
$$



USA.gov is the U.S. government's official web portal to all federal, state and local government web resources and services.